Wind_Speed
17 17 18 19 22 25 29 32 33 31 30 28 26 25 26 26 27 29 30 32 33 35 36 37 38 40 42 43 45 46 48 49 52 55 57 58 58 58 58 59 60 59 59
17 18 21 24 28 31 34 34 31 28 26 25 25 26 27 29 31 32 34 35 37 39 41 42 44 45 47 49 50 52 53 53 55 57 61 62 61 60 62 63 63 63 63
19 21 25 29 33 35 35 33 29 27 26 26 26 27 29 31 34 37 39 42 44 46 47 49 51 53 54 55 56 57 59 60 60 61 64 67 67 66 63 63 64 65 64
22 25 29 32 32 31 30 28 27 28 28 29 31 33 35 37 38 41 43 45 47 49 50 52 54 56 58 59 61 62 63 64 65 66 67 69 71 75 74 68 66 67 65
25 28 29 28 27 26 26 26 27 29 31 33 35 37 38 40 42 43 46 48 50 53 55 57 59 61 63 65 66 68 69 70 71 71 73 74 75 75 77 76 69 66 63
28 27 25 24 24 24 26 27 29 30 32 34 37 39 41 43 45 47 49 52 54 56 58 59 61 62 64 66 67 69 69 70 71 72 72 72 71 66 67 70 69 66 62
26 24 23 23 24 26 27 28 30 32 35 37 39 42 44 46 48 50 51 53 54 56 57 59 61 64 65 66 67 68 69 69 71 72 72 71 67 64 63 65 67 68 69
24 22 22 23 25 26 29 31 34 36 38 40 42 44 46 48 50 52 54 57 59 60 63 65 67 69 70 71 72 72 73 74 75 75 75 75 74 72 70 69 69 70 69
23 23 24 25 27 30 32 34 36 39 40 41 43 46 48 51 54 57 60 61 63 65 67 70 71 73 74 75 76 77 77 78 79 80 80 79 78 76 74 73 71 71 71
24 26 27 29 31 33 35 37 38 40 42 46 49 51 54 57 58 59 61 64 68 72 74 76 78 80 81 83 84 84 85 85 86 85 84 83 81 77 75 74 72 70 69
25 28 30 32 35 36 38 39 42 45 49 53 55 58 60 61 63 65 69 72 75 78 80 82 84 86 87 88 89 89 89 88 87 85 84 83 81 80 78 76 75 74 72
26 29 32 33 35 37 40 44 48 52 55 59 61 63 65 67 70 73 77 80 82 85 88 90 92 93 92 91 90 88 87 86 85 84 82 80 79 77 77 77 77 75 73
31 33 33 35 39 43 47 50 54 57 60 63 65 68 70 73 77 80 84 87 90 93 96 97 96 95 94 92 90 87 86 84 82 82 81 79 78 76 75 75 75 76 75
31 33 36 40 45 50 54 57 61 63 66 68 70 74 77 80 83 87 90 94 96 98 99 98 96 93 91 88 86 86 85 82 80 79 79 78 77 76 74 74 74 75 74
34 38 43 47 52 56 59 62 65 69 71 73 76 79 81 85 90 94 97 99 99 98 98 97 94 90 85 80 77 76 76 74 73 73 73 72 72 72 73 73 72 73 71
38 43 47 52 57 61 64 67 70 73 76 78 80 84 88 93 96 98 98 98 95 92 90 87 83 78 75 73 73 72 71 70 71 71 71 71 71 70 70 70 70 68 67
45 50 54 58 62 65 68 71 74 76 78 81 86 90 94 96 96 95 91 87 83 79 75 73 72 70 69 69 70 71 72 73 74 75 75 74 74 74 74 72 70 68 67
52 56 59 61 64 67 70 72 75 77 81 86 91 94 96 94 89 84 79 75 71 68 67 66 66 66 68 72 75 79 81 82 84 85 84 82 80 79 80 77 74 71 69
56 58 60 63 66 69 72 74 78 81 87 91 95 95 91 85 79 73 70 67 66 65 66 68 70 74 77 80 83 86 87 88 89 89 86 82 79 75 75 74 72 70 66
58 61 64 67 70 72 75 79 83 88 91 93 90 84 79 75 72 69 67 66 67 69 72 74 79 84 86 89 91 92 92 90 88 84 78 73 68 65 63 64 63 62 60
62 65 69 71 73 76 80 85 88 91 90 85 79 75 72 71 70 68 69 70 72 75 79 81 86 90 93 95 95 94 92 88 83 77 70 64 59 56 54 53 52 50 49
65 68 70 72 76 81 85 88 90 89 84 78 74 71 70 70 70 71 73 76 79 82 86 90 94 96 96 95 93 89 84 78 72 66 60 55 49 45 44 43 42 40 40
70 72 73 76 81 85 88 89 87 82 76 71 70 69 69 70 72 75 77 81 86 92 96 98 99 96 91 86 81 75 68 61 56 52 50 48 41 37 35 34 33 33 34
72 74 77 81 85 88 89 87 82 74 70 69 69 70 70 72 75 79 84 90 94 98 99 97 93 87 79 70 63 57 50 44 41 39 40 42 37 31 27 26 27 28 28
73 76 80 85 87 87 83 79 73 70 69 69 69 71 74 78 82 86 90 93 94 93 89 84 78 70 61 52 48 44 39 34 32 31 31 32 32 27 23 22 22 22 21
75 79 83 85 84 81 75 71 68 68 69 71 74 78 82 86 89 90 89 86 79 72 70 66 60 54 49 44 42 39 34 32 31 30 28 27 27 24 19 18 16 15 17
Wind_Direction
254 255 259 264 271 279 286 289 291 290 287 285 285 287 288 288 287 286 287 289 290 291 291 291 292 292 292 292 291 290 289 288 287 286 286 286 287 288 288 287 287 288 288
258 262 269 277 284 289 290 290 287 284 284 284 285 288 292 295 296 298 300 300 300 300 300 300 299 298 297 296 294 293 291 289 287 287 287 288 287 287 286 287 287 287 287
259 267 277 284 287 289 289 289 289 289 289 291 294 296 298 301 302 303 304 303 303 303 302 302 301 299 297 296 294 293 292 291 289 288 288 289 288 285 285 285 285 285 286
268 276 281 283 284 285 287 290 293 295 298 300 301 304 305 305 303 303 303 303 303 302 300 299 297 295 294 293 293 292 291 290 289 289 289 289 289 289 288 286 285 285 285
274 278 280 282 284 285 288 292 295 299 302 303 304 304 303 302 302 301 300 299 298 296 295 294 293 293 292 291 291 290 290 290 290 291 291 290 289 289 289 289 287 285 285
275 275 278 281 282 285 290 295 299 300 301 301 302 301 300 299 298 298 297 296 295 295 295 295 295 294 293 292 291 291 291 291 291 291 291 292 291 291 289 288 286 285 284
270 272 276 283 288 292 294 295 295 294 296 297 297 297 297 297 298 298 298 299 299 299 300 300 299 298 297 295 293 292 291 290 289 289 289 289 289 287 286 285 284 284 284
273 280 287 288 288 288 289 290 292 293 294 295 295 296 298 299 301 302 302 302 301 301 301 301 300 299 297 296 294 292 291 290 289 289 288 288 288 287 286 284 283 282 280
283 286 283 282 283 285 286 288 289 291 292 295 297 299 301 302 302 303 303 303 303 303 302 301 301 300 299 298 296 294 292 290 288 287 287 287 287 287 286 286 286 285 283
282 279 281 284 285 287 288 288 289 291 296 299 299 300 302 301 301 301 301 301 301 300 300 299 299 299 299 298 296 295 293 291 290 290 289 289 288 288 289 288 287 286 286
280 283 285 287 287 288 290 293 297 300 301 301 301 302 301 301 301 300 300 300 300 299 298 298 297 296 295 293 292 291 290 289 288 287 287 287 288 288 289 289 288 288 288
281 281 284 288 291 295 298 300 301 302 302 302 301 300 300 299 299 299 300 300 299 298 298 298 297 295 293 290 288 286 285 285 284 285 285 286 286 287 287 286 287 287 286
289 292 295 296 296 297 300 302 302 302 301 300 300 300 300 300 300 299 299 298 298 298 298 297 296 295 293 290 287 285 284 284 285 286 286 286 286 286 286 286 287 286 285
296 297 296 296 298 300 302 303 303 303 302 302 302 302 302 301 300 299 298 297 297 298 298 298 296 294 292 291 290 289 289 288 289 289 289 289 289 289 288 287 287 286 285
300 301 302 302 302 302 303 304 304 303 302 302 302 302 302 301 300 299 298 298 299 299 298 297 296 296 296 296 295 293 293 293 292 291 290 290 290 290 290 289 287 285 284
302 303 304 305 304 304 304 303 303 303 303 302 302 302 303 303 302 300 300 299 298 297 296 296 297 298 298 297 295 293 292 291 290 289 288 287 287 286 286 286 286 285 284
306 307 306 305 304 303 302 302 303 303 303 304 305 305 305 304 302 300 298 296 296 297 298 299 299 300 299 298 298 297 295 294 293 292 290 288 287 286 284 282 282 283 282
306 305 305 304 304 303 303 303 304 306 307 308 308 307 306 304 301 298 297 297 298 300 301 300 300 300 301 301 300 298 297 296 295 294 293 291 288 286 284 281 280 279 279
305 305 305 305 304 304 306 306 308 309 310 310 309 307 305 301 298 298 298 300 301 301 301 301 302 302 303 303 302 300 298 298 297 296 295 293 290 286 284 281 278 277 277
304 305 306 306 307 308 309 310 311 311 311 310 307 304 302 300 299 299 300 300 301 302 302 303 303 304 304 304 303 302 301 300 299 299 298 296 292 287 283 281 278 277 276
307 308 309 310 310 311 312 312 312 312 311 309 305 302 301 301 301 301 300 301 302 302 303 303 303 303 303 303 302 302 301 301 301 300 299 296 292 287 282 279 278 277 276
309 310 311 311 311 312 313 313 313 313 311 308 306 304 303 302 302 302 303 304 305 304 304 303 303 303 303 302 302 302 302 301 301 300 298 296 292 285 279 275 274 273 274
310 311 311 311 312 313 314 314 313 313 310 309 308 307 306 305 305 306 306 306 306 305 305 304 304 304 304 303 302 301 301 300 300 300 298 296 291 283 275 269 264 264 268
310 310 311 313 315 316 315 314 313 313 312 311 309 308 307 307 307 307 307 307 307 306 306 306 306 306 306 305 302 300 298 298 298 298 297 295 291 283 271 258 252 256 267
310 311 313 315 316 316 314 314 314 313 313 313 312 311 311 310 309 308 307 307 307 308 309 310 310 310 310 307 303 302 303 302 298 297 296 295 290 282 264 243 241 257 272
311 313 314 315 316 315 315 314 314 314 315 316 316 314 312 310 308 307 307 308 311 313 314 315 315 315 314 313 310 310 310 307 305 306 306 298 289 276 247 228 241 266 281
Height
5821 5823 5823 5823 5824 5824 5822 5820 5817 5814 5810 5807 5804 5802 5799 5797 5794 5792 5790 5788 5785 5782 5780 5777 5774 5770 5767 5763 5760 5756 5752 5748 5742 5737 5733 5729 5726 5722 5718 5712 5707 5704 5698
5818 5819 5819 5818 5816 5815 5814 5812 5809 5807 5805 5802 5799 5797 5794 5791 5788 5785 5783 5780 5777 5774 5771 5768 5765 5762 5758 5753 5749 5745 5741 5737 5730 5725 5719 5717 5716 5711 5704 5699 5695 5691 5687
5814 5814 5813 5811 5809 5808 5806 5803 5801 5799 5797 5795 5793 5791 5788 5785 5782 5779 5775 5772 5769 5765 5761 5758 5754 5749 5745 5741 5736 5731 5726 5722 5717 5712 5706 5701 5699 5696 5694 5687 5682 5677 5674
5808 5808 5807 5805 5803 5801 5799 5797 5795 5792 5790 5788 5786 5783 5780 5777 5774 5770 5766 5762 5758 5753 5749 5746 5741 5736 5731 5727 5722 5716 5711 5706 5702 5697 5692 5686 5680 5674 5672 5673 5667 5661 5658
5803 5802 5801 5800 5798 5796 5794 5791 5789 5786 5784 5781 5778 5775 5771 5768 5764 5760 5756 5752 5747 5742 5738 5734 5729 5723 5717 5712 5707 5701 5695 5690 5685 5680 5674 5668 5663 5657 5650 5648 5649 5645 5642
5797 5796 5795 5794 5792 5790 5788 5786 5783 5779 5776 5772 5769 5766 5762 5758 5754 5749 5745 5740 5735 5730 5725 5720 5715 5709 5703 5697 5691 5685 5679 5673 5668 5662 5655 5649 5643 5639 5632 5626 5625 5624 5625
5791 5790 5789 5788 5786 5784 5782 5778 5775 5771 5767 5764 5760 5756 5752 5747 5742 5737 5731 5726 5721 5716 5711 5705 5700 5694 5688 5682 5676 5670 5663 5657 5651 5645 5638 5631 5626 5622 5617 5611 5606 5602 5603
5784 5784 5782 5780 5778 5776 5772 5769 5765 5761 5758 5754 5750 5745 5740 5735 5730 5724 5719 5713 5708 5702 5696 5690 5684 5677 5670 5664 5658 5653 5647 5640 5633 5627 5621 5615 5610 5605 5601 5595 5589 5584 5582
5778 5776 5773 5772 5770 5768 5764 5761 5757 5753 5748 5743 5738 5734 5729 5723 5718 5712 5706 5700 5693 5687 5681 5674 5667 5660 5653 5645 5638 5632 5626 5619 5613 5607 5601 5595 5590 5585 5581 5576 5570 5564 5561
5770 5768 5767 5765 5763 5759 5756 5752 5747 5743 5739 5734 5729 5724 5718 5712 5706 5699 5692 5686 5678 5671 5664 5657 5649 5641 5633 5625 5617 5611 5604 5597 5591 5585 5579 5574 5569 5564 5560 5555 5551 5544 5538
5763 5761 5760 5757 5754 5750 5747 5743 5739 5735 5729 5723 5718 5712 5705 5698 5691 5685 5677 5670 5662 5654 5645 5637 5629 5621 5612 5604 5594 5587 5579 5573 5568 5563 5557 5553 5547 5542 5538 5533 5529 5526 5521
5756 5755 5753 5750 5746 5742 5737 5734 5729 5724 5717 5711 5704 5697 5690 5683 5675 5667 5659 5651 5643 5634 5625 5617 5607 5598 5589 5580 5569 5561 5553 5547 5543 5539 5534 5530 5525 5521 5516 5510 5507 5504 5500
5749 5748 5745 5741 5736 5732 5727 5721 5716 5710 5703 5696 5689 5681 5674 5666 5657 5649 5641 5632 5623 5613 5603 5593 5582 5573 5563 5554 5545 5536 5530 5525 5521 5516 5510 5505 5500 5496 5491 5487 5484 5481 5478
5742 5740 5736 5732 5726 5720 5714 5708 5701 5694 5686 5679 5671 5664 5657 5648 5639 5630 5620 5610 5599 5589 5579 5568 5557 5546 5536 5526 5518 5511 5506 5503 5499 5492 5487 5482 5475 5470 5467 5463 5461 5458 5455
5731 5727 5723 5719 5713 5707 5700 5693 5685 5677 5670 5662 5655 5647 5639 5629 5619 5609 5597 5585 5574 5563 5552 5542 5532 5521 5513 5504 5496 5490 5485 5481 5476 5470 5465 5459 5453 5446 5441 5438 5437 5435 5433
5720 5716 5711 5705 5699 5692 5685 5677 5670 5661 5653 5645 5636 5627 5618 5607 5595 5583 5572 5561 5550 5538 5528 5518 5510 5503 5495 5486 5478 5471 5467 5460 5454 5450 5445 5440 5432 5425 5421 5416 5414 5412 5409
5708 5702 5697 5692 5685 5678 5670 5662 5654 5646 5637 5627 5616 5606 5596 5584 5571 5560 5548 5537 5527 5517 5509 5500 5492 5485 5477 5468 5460 5453 5445 5438 5431 5425 5420 5415 5409 5403 5397 5395 5394 5393 5389
5695 5690 5683 5677 5670 5663 5655 5647 5638 5629 5619 5607 5596 5584 5572 5559 5547 5535 5524 5515 5506 5498 5490 5482 5473 5467 5459 5450 5441 5431 5423 5415 5406 5398 5391 5386 5382 5375 5367 5368 5370 5371 5369
5684 5677 5670 5663 5655 5647 5639 5630 5621 5610 5598 5585 5571 5557 5545 5534 5524 5515 5505 5496 5488 5480 5472 5464 5456 5449 5441 5430 5419 5407 5398 5390 5381 5372 5365 5357 5352 5347 5339 5338 5342 5345 5347
5670 5662 5655 5647 5639 5630 5621 5612 5601 5590 5577 5563 5548 5533 5522 5513 5504 5495 5487 5478 5470 5462 5454 5446 5437 5428 5419 5407 5394 5380 5369 5361 5352 5345 5338 5331 5325 5321 5317 5314 5316 5320 5324
5654 5647 5639 5630 5622 5613 5603 5592 5581 5569 5554 5539 5526 5515 5504 5494 5485 5477 5468 5461 5453 5444 5435 5427 5418 5407 5396 5382 5369 5355 5343 5334 5326 5320 5314 5309 5303 5301 5299 5296 5297 5300 5304
5639 5631 5622 5613 5603 5594 5584 5573 5560 5546 5532 5519 5508 5497 5487 5477 5468 5460 5452 5442 5431 5422 5412 5402 5392 5382 5370 5355 5341 5330 5319 5311 5304 5299 5294 5290 5286 5284 5283 5283 5284 5287 5290
5622 5613 5604 5594 5585 5574 5563 5550 5536 5524 5512 5501 5490 5480 5471 5461 5451 5442 5432 5422 5410 5397 5385 5373 5362 5353 5343 5329 5316 5307 5299 5293 5288 5283 5277 5273 5272 5271 5271 5272 5274 5277 5280
5604 5595 5585 5575 5564 5551 5537 5525 5514 5503 5493 5483 5474 5464 5455 5445 5435 5424 5412 5400 5385 5371 5357 5344 5333 5323 5315 5304 5294 5288 5284 5282 5278 5273 5268 5262 5261 5261 5261 5262 5265 5269 5272
5587 5577 5566 5555 5543 5530 5517 5505 5496 5486 5477 5468 5458 5448 5438 5427 5416 5404 5391 5378 5364 5344 5330 5318 5308 5299 5294 5287 5280 5275 5273 5271 5267 5263 5260 5255 5252 5251 5252 5255 5259 5264 5266
5571 5560 5549 5537 5525 5513 5500 5490 5480 5470 5461 5452 5442 5430 5418 5407 5394 5382 5373 5360 5344 5330 5314 5301 5293 5286 5280 5275 5270 5266 5263 5259 5256 5253 5251 5247 5244 5243 5246 5250 5256 5259 5261